Location: *
(2.5500°S, 65.9667°W)
Time: 02:54:17
(UTC+00:00)

DELTA-4 R/B - Pass Details

Date: 27 May 2022
Orbit: 448 x 34502 km, 13.4° (Epoch: 04 July)

Event Time Altitude Azimuth Distance (km) Brightness Sun altitude
Rises 05:43:41 0° 258° (WSW) 13,813 9.2 -62.5°
Reaches altitude 10° 05:53:40 10° 259° (W) 15,220 9.3 -60.7°
Maximum altitude 15:03:31 44° 357° (N) 1,910 6.3 59.5°
Drops below altitude 10° 15:08:08 10° 71° (ENE) 2,286 6.0 60.2°
Sets 15:09:37 0° 80° (E) 2,871 6.3 60.4°
